AF7U Weather Reports


time (UTC)temp
F
wind
direction
speed
knots
gust
knots
rain 1hr
in
rain 24hr
in
rain mn
in
humidity
%
barometer
mb
20260506002232 66 330 1.7 0.0 0.00 0.00 0.00 67 1014.3
20260506001723 67 295 0.9 0.0 0.00 0.00 0.00 66 1014.4
20260506001231 66 298 0.9 0.0 0.00 0.00 0.00 67 1014.4
20260506000740 66 347 0.0 0.0 0.00 0.00 0.00 68 1014.4
20260506000229 65 286 0.0 0.0 0.00 0.00 0.00 68 1014.5
20260505235732 65 157 0.0 0.0 0.00 0.00 0.00 71 1014.5
20260505235218 65 315 0.0 0.0 0.00 0.00 0.00 70 1014.6
20260505234733 65 314 0.0 0.0 0.00 0.00 0.00 71 1014.7
20260505234231 65 355 0.0 0.0 0.00 0.00 0.00 69 1014.8
20260505233728 65 9 0.0 0.0 0.00 0.00 0.00 70 1014.8
20260505233239 65 9 0.0 0.0 0.00 0.00 0.00 70 1014.8
20260505232743 64 98 0.0 0.0 0.00 0.00 0.00 71 1014.8
20260505232230 65 209 0.0 0.0 0.00 0.00 0.00 70 1014.8
20260505231722 65 340 0.0 0.0 0.00 0.00 0.00 70 1014.8
20260505231224 65 331 0.0 0.0 0.00 0.00 0.00 70 1014.8
20260505230735 64 328 0.0 0.0 0.00 0.00 0.00 71 1014.9
20260505230245 64 328 0.0 0.0 0.00 0.00 0.00 71 1014.9
20260505225728 64 339 0.0 0.0 0.00 0.00 0.00 71 1014.9
20260505225237 64 313 0.0 0.0 0.00 0.00 0.00 72 1014.9
20260505224742 64 80 0.0 0.0 0.00 0.00 0.00 71 1015.0
20260505224224 64 80 0.0 0.0 0.00 0.00 0.00 72 1015.0
20260505223742 63 172 0.0 0.0 0.00 0.00 0.00 72 1015.1
20260505223231 63 172 0.0 0.0 0.00 0.00 0.00 73 1015.1
20260505222718 63 180 0.0 0.0 0.00 0.00 0.00 73 1015.1
20260505222228 63 243 0.0 0.0 0.00 0.00 0.00 72 1015.1
20260505221739 63 243 0.0 0.0 0.00 0.00 0.00 72 1015.1
20260505221223 63 138 0.0 0.0 0.00 0.00 0.00 72 1015.2
20260505220754 63 101 0.0 0.0 0.00 0.00 0.00 72 1015.2
20260505220239 63 101 0.0 0.0 0.00 0.00 0.00 73 1015.3
20260505215727 63 101 0.0 0.0 0.00 0.00 0.00 73 1015.3
20260505215235 63 144 0.0 0.0 0.00 0.00 0.00 72 1015.3
20260505214748 63 214 0.0 0.0 0.00 0.00 0.00 73 1015.2
20260505214229 63 214 0.0 0.0 0.00 0.00 0.00 72 1015.3
20260505213737 63 219 0.0 0.0 0.00 0.00 0.00 73 1015.3
20260505213250 63 160 0.0 0.0 0.00 0.00 0.00 72 1015.3
20260505212742 63 148 0.0 0.0 0.00 0.00 0.00 73 1015.3
20260505212246 63 190 0.0 0.0 0.00 0.00 0.00 73 1015.4
20260505211732 63 190 0.0 0.0 0.00 0.00 0.00 74 1015.4
20260505211243 63 231 0.0 0.0 0.00 0.00 0.00 73 1015.5
20260505210724 62 314 0.0 0.0 0.00 0.00 0.00 73 1015.5
20260505210255 62 169 0.0 0.0 0.00 0.00 0.00 74 1015.5
20260505205727 62 5 0.0 0.0 0.00 0.00 0.00 72 1015.5
20260505205236 62 155 0.0 0.0 0.00 0.00 0.00 75 1015.4
20260505204751 63 157 0.0 0.0 0.00 0.00 0.00 74 1015.5
20260505204223 63 238 0.0 0.0 0.00 0.00 0.00 72 1015.5
20260505203740 63 345 0.0 0.0 0.00 0.00 0.00 72 1015.6
20260505203238 63 312 0.0 0.0 0.00 0.00 0.00 71 1015.6
20260505202733 63 340 0.0 0.0 0.00 0.00 0.00 72 1015.6
20260505202235 62 340 0.9 0.0 0.00 0.00 0.00 74 1015.6
20260505201726 62 177 0.9 0.0 0.00 0.00 0.00 73 1015.6
20260505201240 62 171 0.0 0.0 0.00 0.00 0.00 74 1015.6
20260505200742 62 344 0.0 0.0 0.00 0.00 0.00 72 1015.7
20260505200230 62 324 0.0 0.0 0.00 0.00 0.00 74 1015.7
20260505195721 62 324 0.0 0.0 0.00 0.00 0.00 75 1015.7
20260505195248 62 190 0.0 0.0 0.00 0.00 0.00 75 1015.8
20260505194729 61 246 0.0 0.0 0.00 0.00 0.00 75 1015.7
20260505194236 61 246 0.0 0.0 0.00 0.00 0.00 77 1015.7
20260505193742 60 165 0.9 0.0 0.00 0.00 0.00 77 1015.8
20260505193224 60 165 0.9 0.0 0.00 0.00 0.00 77 1015.7
20260505192737 60 150 0.9 0.0 0.00 0.00 0.00 78 1015.8
20260505192253 60 153 0.9 0.0 0.00 0.00 0.00 77 1015.9
20260505191807 60 168 0.0 0.0 0.00 0.00 0.00 77 1015.9
20260505191256 60 168 0.9 0.0 0.00 0.00 0.00 77 1015.9
20260505190734 60 173 0.0 0.0 0.00 0.00 0.00 77 1015.8
20260505190227 60 208 0.0 0.0 0.00 0.00 0.00 77 1015.8
20260505185735 60 296 0.0 0.0 0.00 0.00 0.00 77 1015.8
20260505185224 60 296 0.0 0.0 0.00 0.00 0.00 79 1015.8
20260505184734 60 265 0.0 0.0 0.00 0.00 0.00 77 1015.8
20260505184237 60 269 0.0 0.0 0.00 0.00 0.00 77 1015.8
20260505183730 60 335 0.0 0.0 0.00 0.00 0.00 77 1015.8
20260505183236 60 335 0.0 0.0 0.00 0.00 0.00 78 1015.8
20260505182738 60 315 0.0 0.0 0.00 0.00 0.00 78 1015.8
20260505182230 60 316 0.0 0.0 0.00 0.00 0.00 78 1015.8
20260505181743 60 314 0.0 0.0 0.00 0.00 0.00 79 1015.8
20260505181246 60 317 0.0 0.0 0.00 0.00 0.00 79 1015.8
20260505180738 60 317 0.0 0.0 0.00 0.00 0.00 80 1015.8
20260505180226 59 297 0.0 0.0 0.00 0.00 0.00 79 1015.7
20260505175729 59 323 0.0 0.0 0.00 0.00 0.00 80 1015.7
20260505175255 59 323 0.0 0.0 0.00 0.00 0.00 81 1015.7
20260505174725 58 360 0.0 0.0 0.00 0.00 0.00 80 1015.8
20260505174233 58 107 0.0 0.0 0.00 0.00 0.00 82 1015.6
20260505173738 58 107 0.0 0.0 0.00 0.00 0.00 83 1015.6
20260505173226 57 155 0.0 0.0 0.00 0.00 0.00 83 1015.6
20260505172736 57 155 0.0 0.0 0.00 0.00 0.00 85 1015.6
20260505172233 57 155 0.0 0.0 0.00 0.00 0.00 85 1015.7
20260505171833 56 155 0.0 0.0 0.00 0.00 0.00 85 1015.6
20260505071740 55 128 0.9 0.0 0.00 0.00 0.00 87 1012.9
20260505071225 55 180 0.9 0.0 0.00 0.00 0.00 87 1013.0
20260505070739 55 129 0.0 0.0 0.00 0.00 0.00 87 1013.0
20260505070245 55 165 0.0 0.0 0.00 0.00 0.00 87 1012.9
20260505065727 55 157 0.9 0.0 0.00 0.00 0.00 87 1013.0
20260505065234 55 189 0.9 0.0 0.00 0.00 0.00 87 1012.9
20260505064723 55 163 0.9 0.0 0.00 0.00 0.00 87 1012.9
20260505064231 55 186 0.0 0.0 0.00 0.00 0.00 87 1012.9
20260505063745 55 163 0.0 0.0 0.00 0.00 0.00 87 1012.9
20260505063226 55 159 0.0 0.0 0.00 0.00 0.00 87 1012.8
20260505062723 55 154 0.0 0.0 0.00 0.00 0.00 87 1012.8
20260505062229 55 178 0.0 0.0 0.00 0.00 0.00 87 1012.7
20260505061729 55 178 0.9 0.0 0.00 0.00 0.00 86 1012.7
20260505061228 55 186 0.9 0.0 0.00 0.00 0.00 86 1012.8
20260505060741 56 173 0.9 0.0 0.00 0.00 0.00 85 1012.7
20260505060250 56 169 1.7 0.0 0.00 0.00 0.00 85 1012.7
20260505055721 56 161 0.9 0.0 0.00 0.00 0.00 85 1012.8
20260505055221 56 180 1.7 0.0 0.00 0.00 0.00 85 1012.8
20260505054737 56 198 1.7 0.0 0.00 0.00 0.00 85 1012.8
20260505054230 56 173 0.9 0.0 0.00 0.00 0.00 85 1012.8
20260505053805 56 163 0.9 0.0 0.00 0.00 0.00 85 1012.7
20260505053231 56 177 0.0 0.0 0.00 0.00 0.00 86 1012.8
20260505052727 56 133 0.0 0.0 0.00 0.00 0.00 85 1012.7
20260505052258 57 171 0.0 0.0 0.00 0.00 0.00 84 1012.6
20260505051724 57 173 0.0 0.0 0.00 0.00 0.00 84 1012.6
20260505051237 57 174 0.0 0.0 0.00 0.00 0.00 85 1012.6
20260505050720 58 174 0.0 0.0 0.00 0.00 0.00 83 1012.5
20260505050230 58 174 0.0 0.0 0.00 0.00 0.00 82 1012.5
20260505041719 59 174 0.0 0.0 0.00 0.00 0.00 81 1011.8
20260505041232 59 174 0.0 0.0 0.00 0.00 0.00 81 1011.7
20260505040747 59 174 0.0 0.0 0.00 0.00 0.00 80 1011.6
20260505040227 60 174 0.0 0.0 0.00 0.00 0.00 80 1011.5
20260505035741 60 174 0.0 0.0 0.00 0.00 0.00 81 1011.4
20260505035225 60 174 0.0 0.0 0.00 0.00 0.00 80 1011.4
20260505034739 60 174 0.0 0.0 0.00 0.00 0.00 79 1011.3
20260505034229 61 242 0.0 0.0 0.00 0.00 0.00 79 1011.2
20260505033730 61 249 0.0 0.0 0.00 0.00 0.00 78 1011.1
20260505033224 61 175 0.0 0.0 0.00 0.00 0.00 77 1011.0
20260505032739 62 181 0.0 0.0 0.00 0.00 0.00 78 1010.9
20260505032225 63 243 0.0 0.0 0.00 0.00 0.00 76 1010.9
20260505031719 63 243 0.0 0.0 0.00 0.00 0.00 76 1010.8
20260505031225 63 243 0.0 0.0 0.00 0.00 0.00 74 1010.7
20260505030727 64 227 0.0 0.0 0.00 0.00 0.00 73 1010.6
20260505030235 64 231 0.0 0.0 0.00 0.00 0.00 72 1010.5
20260505025726 65 252 0.0 0.0 0.00 0.00 0.00 72 1010.4
20260505025257 65 207 0.0 0.0 0.00 0.00 0.00 72 1010.2
20260505024721 66 172 0.0 0.0 0.00 0.00 0.00 72 1010.1
20260505024230 66 262 0.0 0.0 0.00 0.00 0.00 71 1010.1
20260505023743 67 244 0.0 0.0 0.00 0.00 0.00 71 1010.1
20260505023227 67 186 0.0 0.0 0.00 0.00 0.00 70 1010.0
20260505022721 67 171 0.0 0.0 0.00 0.00 0.00 70 1009.9
20260505022232 68 249 0.0 0.0 0.00 0.00 0.00 69 1009.9
20260505021734 68 214 0.0 0.0 0.00 0.00 0.00 70 1009.9
20260505021219 69 204 0.0 0.0 0.00 0.00 0.00 68 1009.9
20260505020736 69 202 0.0 0.0 0.00 0.00 0.00 69 1009.9
20260505020231 69 191 0.0 0.0 0.00 0.00 0.00 69 1010.0
20260505015722 70 167 0.9 0.0 0.00 0.00 0.00 70 1010.0
20260505015229 70 176 0.9 0.0 0.00 0.00 0.00 70 1009.9
20260505014720 70 192 0.9 0.0 0.00 0.00 0.00 70 1009.9
20260505014222 70 176 0.9 0.0 0.00 0.00 0.00 71 1009.9
20260505013730 70 186 0.9 0.0 0.00 0.00 0.00 69 1010.0
20260505013241 70 169 0.9 0.0 0.00 0.00 0.00 69 1010.0
20260505012736 70 170 0.9 0.0 0.00 0.00 0.00 69 1010.0
20260505012222 70 190 0.9 0.0 0.00 0.00 0.00 69 1010.0
20260505011740 70 173 0.9 0.0 0.00 0.00 0.00 69 1010.1
20260505011249 70 194 1.7 0.0 0.00 0.00 0.00 68 1010.1
20260505010718 71 147 0.9 0.0 0.00 0.00 0.00 68 1010.2
20260505010218 71 141 0.9 0.0 0.00 0.00 0.00 68 1010.2
20260505005732 71 184 0.9 0.0 0.00 0.00 0.00 68 1010.2
20260505005221 71 171 1.7 0.0 0.00 0.00 0.00 67 1010.3
20260505004725 71 146 1.7 0.0 0.00 0.00 0.00 67 1010.3
20260505004234 71 146 0.9 0.0 0.00 0.00 0.00 67 1010.3
20260505003727 70 241 0.9 0.0 0.00 0.00 0.00 68 1010.3
20260505003232 70 174 0.9 0.0 0.00 0.00 0.00 68 1010.3
20260505002725 70 155 0.9 0.0 0.00 0.00 0.00 69 1010.4